Regional Weather Roundup
Issued by NWS

Home | Current Version | Previous Version | Graphics & Text | Print | Product List | Glossary Off
Versions: 1 2 3 4 5 6 7 8 9 10 11 12 13 14 15 16 17 18 19 20 21 22 23 24 25 26 27 28 29 30 31 32 33 34 35 36 37 38 39 40 41 42 43 44 45 46 47 48 49 50

179
ASUS43 KMPX 210710
RWRMN
WEATHER ROUNDUP FOR MINNESOTA
NATIONAL WEATHER SERVICE TWIN CITIES/CHANHASSEN MN
100 AM CST TUE NOV 21 2017


NOTE: "FAIR" INDICATES FEW OR NO CLOUDS BELOW 12,000 FEET WITH NO
SIGNIFICANT WEATHER AND/OR OBSTRUCTIONS TO VISIBILITY. N/A MEANS
CURRENT SKY AND/OR WEATHER CONDITIONS ARE NOT AVAILABLE.

MNZ060>063-068>070-210800-
   Twin Cities Metro

CITY           SKY/WX    TMP DP  RH WIND       PRES   REMARKS
TWIN CITIES    PTCLDY    39  24  55 W21G30    29.56R
ST PAUL        CLEAR     40  22  48 NW22G31   29.56R
CRYSTAL        PTCLDY    38  20  48 W16G24    29.55R
BLAINE         CLEAR     39  25  56 W18G24    29.54S
LAKEVILLE      CLEAR     37  25  60 W16G25    29.57R
EDEN PRAIRIE   CLEAR     39  23  52 W15G26    29.57R
SOUTH ST PAUL  CLEAR     41  22  47 W15       29.55R
LAKE ELMO      FAIR      39  27  60 W15G24    29.54R
$$
MNZ001>005-007-008-013>017-022>024-027-028-210800-
   Northwest Minnesota

CITY           SKY/WX    TMP DP  RH WIND       PRES   REMARKS
BEMIDJI        FLURRIES  21  14  73 W25G32    29.53R WCI   4
HALLOCK        LGT SNOW  18  12  79 NW25G37   29.68R WCI  -1
ROSEAU         LGT SNOW  19  12  73 NW18G24   29.55R WCI   4
WARROAD        LGT SNOW  18  12  79 NW14G23   29.53R WCI   4
THIEF RVR FALL FLURRIES  18  10  73 NW25G38   29.65R WCI  -1
CROOKSTON      LGT SNOW  21  14  73 N31G39    29.70R WCI   3
FOSSTON        LGT SNOW  19  12  73 NW23G38   29.62R WCI   2
DETROIT LAKES  CLOUDY    25  14  63 NW32G45   29.65R WCI   7
MOORHEAD       RAIN      25  16  68 NW18      29.72R WCI  11
PARK RAPIDS    FLURRIES  23  13  65 NW24G40   29.57R WCI   7
MAHNOMEN       CLOUDY    21  11  66 NW29G36   29.64R WCI   3
$$
MNZ006-009>011-018-025>026-210800-
   North Central Minnesota

CITY           SKY/WX    TMP DP  RH WIND       PRES   REMARKS
BAUDETTE       FLURRIES  20  12  71 W24G35    29.47R WCI   3
FLAG ISLAND    LGT SNOW  19  14  79 NW30      29.46R WCI   0
INTL FALLS     LGT SNOW  22  15  75 W17G30    29.41R WCI   8
WASKISH        CLOUDY    21  12  68 W24G33    29.51R WCI   4
BIG FORK       LGT SNOW  25  18  74 W13G32    29.44R WCI  13
LONGVILLE      CLOUDY    27  16  63 W16G26    29.52R WCI  14
GRAND RAPIDS   FLURRIES  26  17  68 W15G39    29.48R WCI  14
CRANE LAKE     FLURRIES  25  16  68 W12G23    29.38R WCI  14
ORR            CLOUDY    23  12  63 W18G28    29.36R WCI   9
COOK           CLOUDY    25  14  63 W23G37    29.40R WCI  10
WALKER         CLOUDY    23  13  65 W23G30    29.53R WCI   7
$$
MNZ012-019>021-037-210800-
   Northeast Minnesota

CITY           SKY/WX    TMP DP  RH WIND       PRES   REMARKS
DULUTH         CLOUDY    32  23  69 NW22G35   29.36R WCI  19
ELY            FLURRIES  27  18  69 W23G36    29.31R WCI  12
HIBBING        MIX PCPN  28  18  66 W17G35    29.40R WCI  16
EVELETH        MIX PCPN  27  18  69 NW22G30   29.39R WCI  12
DULUTH HARBOR  PTCLDY    37  25  60 W28       29.40R
TWO HARBORS    PTCLDY    37  25  60 W15G29    29.32R
SILVER BAY     CLEAR     34  25  69 W9G23     29.29R WCI  26
GRAND MARAIS     N/A     39  30  70 W12G25    29.20R
G MARAIS ARPRT CLOUDY    30  25  80 W12G23    29.15S WCI  21
$$
MNZ029>031-032-039>041-046>048-054>057-064-210800-
   West Central Minnesota

CITY           SKY/WX    TMP DP  RH WIND       PRES   REMARKS
FERGUS FALLS   CLOUDY    25  16  68 NW20G26   29.71R WCI  11
WHEATON        CLEAR     27  12  54 NW26G38   29.75R WCI  11
MORRIS         CLEAR     28  16  59 NW23G31   29.69R WCI  14
ALEXANDRIA     MOCLDY    27  18  69 NW23G32   29.64R WCI  12
ELBOW LAKE     FAIR      24  17  72 NW24G35   29.69R WCI   9
WADENA         MIX PCPN  21  12  68 W24G35    29.61R WCI   4
GLENWOOD       CLEAR     27  18  69 NW32G38   29.63R WCI  10
APPLETON       PTCLDY    34  12  40 NW25      29.71R WCI  21
BENSON         CLEAR     30  12  47 N28       29.70R WCI  16
ORTONVILLE     CLOUDY    32  16  51 MISG      29.73R
MADISON        CLOUDY    36  18  48 NW16G23   29.72R
WILLMAR        FAIR      34  18  51 NW18      29.67R WCI  23
$$
MNZ033>034-036-042>043-049>051-058-059-210800-
   Central Minnesota

CITY           SKY/WX    TMP DP  RH WIND       PRES   REMARKS
ST CLOUD       CLOUDY    32  22  66 W25G32    29.57R WCI  19
SAUK CENTRE    FAIR      28  20  72 W15       29.61R WCI  16
PAYNESVILLE    CLEAR     31  21  66 W21G33    29.62R WCI  18
AITKIN         PTCLDY    28  18  64 W14G20    29.48R WCI  17
PINE RIVER     CLOUDY    25  16  68 NW14G26   29.58R WCI  13
BRAINERD       MOCLDY    30  18  60 W23G30    29.54R WCI  17
STAPLES        MOCLDY    23  14  68 W28G35    29.59R WCI   6
LONG PRAIRIE   FAIR      28  19  69 W20G29    29.59R WCI  15
LITTLE FALLS   CLOUDY    30  16  55 W17G30    29.58R WCI  18
LITCHFIELD     CLEAR     34  19  55 NW20G26   29.63R WCI  22
BUFFALO        CLEAR     35  22  60 W16G28    29.60R WCI  25
MAPLE LAKE     CLEAR     35  24  65 W17G26    29.60R WCI  24
HUTCHINSON     MOCLDY    35  23  62 W15G21    29.65R WCI  25
$$
MNZ037-044-045-052-053-210800-
   East Central Minnesota

CITY           SKY/WX    TMP DP  RH WIND       PRES   REMARKS
PRINCETON      CLOUDY    36  25  64 W13       29.55R
MORA           CLOUDY    34  23  64 W14G24    29.53R WCI  24
CAMBRIDGE      CLOUDY    37  25  60 W14G25    29.54R
RUSH CITY      CLOUDY    35  25  67 W9G16     29.52R WCI  27
MOOSE LAKE     CLOUDY    32  21  64 W16G30    29.45R WCI  21
HINCKLEY       FAIR      36  27  69 W16G23    29.49R
CLOQUET        PTCLDY    30  19  64 W17G25    29.41R WCI  18
MCGREGOR       MOCLDY    30  21  69 W10G23    29.48R WCI  21
$$
MNZ071>073-080-081-089-090-097-098-210800-
   Southwest Minnesota

CITY           SKY/WX    TMP DP  RH WIND       PRES   REMARKS
MONTEVIDEO     CLOUDY    34  12  40 N24G32    29.70R WCI  21
GRANITE FALLS  CLOUDY    35  19  53 W16G24    29.73R WCI  25
CANBY          MOCLDY    35  15  44 W12       29.75R WCI  26
MARSHALL       CLOUDY    36  16  44 NW17      29.73R
REDWOOD FALLS  MOCLDY    35  15  44 NW15      29.70R WCI  25
OLIVIA         CLOUDY    34  19  55 NW16G26   29.67R WCI  23
PIPESTONE      CLOUDY    34  19  55 N13       29.73S WCI  25
WINDOM         PTCLDY    37  18  44 NW23G32   29.70R
WORTHINGTON    CLOUDY    37  21  52 NW17      29.72R
JACKSON        PTCLDY    36  23  60 NW15G22   29.70R
SLAYTON        CLOUDY    36  20  53 NW25G32   29.73R
$$
MNZ065>067-074>077-082>085-091>093-210800-
   South Central Minnesota

CITY           SKY/WX    TMP DP  RH WIND       PRES   REMARKS
MANKATO        CLEAR     37  20  50 NW23G30   29.64R
NEW ULM        CLEAR     37  16  41 NW24G35   29.67R
ST JAMES       CLEAR     36  21  55 W16       29.69R
FAIRMONT       CLOUDY    38  20  48 NW21      29.68R
GLENCOE        PTCLDY    36  24  64 W21G28    29.62R
FARIBAULT      CLEAR     37  25  60 W21G26    29.60R
OWATONNA       CLEAR     37  27  65 W15       29.61R
WASECA         CLEAR     36  27  69 W16       29.64R
ALBERT LEA     CLEAR     37  23  56 NW10G17   29.62R
$$
MNZ078>079-086>088-094>096-210800-
   Southeast Minnesota

CITY           SKY/WX    TMP DP  RH WIND       PRES   REMARKS
ROCHESTER      CLEAR     36  28  73 W14       29.58R
RED WING       CLEAR     39  25  56 W8        29.54R
STANTON        CLEAR     39  27  62 W18       29.57R
DODGE CENTER   CLEAR     37  27  65 W13G20    29.58R
WINONA         CLEAR     43  28  56 W6        29.56R
AUSTIN         CLEAR     39  27  60 NW14      29.61R
PRESTON        CLEAR     37  27  69 W15       29.58R
$$
ABBREVIATIONS USED IN REMARKS
   TC - TEMPERATURES IN CELSIUS
  WCI - WIND CHILL INDEX
   HX - HEAT INDEX
  VSB - VISIBILITY
$$




USA.gov is the U.S. government's official web portal to all federal, state and local government web resources and services.